RZO174 TXKF-LPPD

Flight info

Callsign RZO174
Flight time 4h 12m
Altitude 27000
Route SOMRR1 BALOO DCT 36N060W 38N056W 40N050W 41N045W 40N035W DCT KOKER H142 FRS H115 VMG
Aircraft A21N/M-SDE3FGHIRWY/LB1

Departure

Time 2026-04-25 16:41
Airport L.F. Wade International Airport (TXKF)

Arrival

Time 2026-04-25 20:53
Airport João Paulo II Airport (LPPD)
Time Latitude Longitude Altitude Speed Heading
2026-04-25 16:01 32.36099 -64.70066 -4 ft 0 kts 150°
2026-04-25 16:32 32.36111 -64.70073 6 ft 2 kts 150°
2026-04-25 16:32 32.36126 -64.70083 6 ft 2 kts 150°
2026-04-25 16:33 32.36141 -64.70093 7 ft 2 kts 150°
2026-04-25 16:33 32.36154 -64.70106 5 ft 2 kts 105°
2026-04-25 16:33 32.36153 -64.70124 5 ft 0 kts 45°
2026-04-25 16:35 32.36154 -64.70123 5 ft 1 kts 44°
2026-04-25 16:35 32.36172 -64.70106 3 ft 3 kts 36°
2026-04-25 16:35 32.36200 -64.70083 4 ft 9 kts 33°
2026-04-25 16:36 32.36278 -64.70024 4 ft 17 kts 36°
2026-04-25 16:36 32.36310 -64.69993 5 ft 18 kts 43°
2026-04-25 16:36 32.36406 -64.69772 4 ft 19 kts 68°
2026-04-25 16:36 32.36455 -64.69629 4 ft 19 kts 67°
2026-04-25 16:37 32.36508 -64.69483 4 ft 19 kts 67°
2026-04-25 16:37 32.36561 -64.69334 4 ft 20 kts 67°
2026-04-25 16:37 32.36611 -64.69182 4 ft 20 kts 78°
2026-04-25 16:37 32.36600 -64.68998 5 ft 24 kts 101°
2026-04-25 16:38 32.36569 -64.68811 6 ft 23 kts 102°
2026-04-25 16:38 32.36538 -64.68627 6 ft 23 kts 102°
2026-04-25 16:38 32.36506 -64.68441 7 ft 23 kts 102°
2026-04-25 16:38 32.36473 -64.68257 7 ft 23 kts 102°
2026-04-25 16:39 32.36441 -64.68068 6 ft 24 kts 101°
2026-04-25 16:39 32.36419 -64.67913 4 ft 10 kts 90°
2026-04-25 16:39 32.36421 -64.67875 3 ft 1 kts 94°
2026-04-25 16:39 32.36406 -64.67901 5 ft 0 kts 288°
2026-04-25 16:40 32.36481 -64.68318 8 ft 88 kts 281°
2026-04-25 16:40 32.36586 -64.68918 5 ft 131 kts 282°
2026-04-25 16:40 32.36801 -64.70159 183 ft 162 kts 286°
2026-04-25 16:41 32.37090 -64.71857 1167 ft 160 kts 286°
2026-04-25 16:41 32.37166 -64.72293 1439 ft 160 kts 286°
2026-04-25 16:41 32.37710 -64.75435 2329 ft 189 kts 284°
2026-04-25 16:42 32.37989 -64.77043 2515 ft 211 kts 283°
2026-04-25 16:42 32.38334 -64.78827 2736 ft 234 kts 291°
2026-04-25 16:42 32.39345 -64.80381 2972 ft 249 kts 327°
2026-04-25 16:42 32.40991 -64.80953 3021 ft 252 kts 358°
2026-04-25 16:43 32.42745 -64.80709 3023 ft 256 kts 10°
2026-04-25 16:43 32.44471 -64.80187 3022 ft 257 kts 13°
2026-04-25 16:43 32.46192 -64.79615 3020 ft 257 kts 13°
2026-04-25 16:43 32.47942 -64.79064 3443 ft 261 kts 11°
2026-04-25 16:44 32.49708 -64.78554 4238 ft 262 kts
2026-04-25 16:44 32.51492 -64.78049 4991 ft 266 kts 13°
2026-04-25 16:44 32.53201 -64.77121 5700 ft 276 kts 27°
2026-04-25 16:44 32.54689 -64.75630 6420 ft 286 kts 44°
2026-04-25 16:45 32.55985 -64.73813 7116 ft 291 kts 44°
2026-04-25 16:45 32.57299 -64.71969 7838 ft 294 kts 44°
2026-04-25 16:45 32.58628 -64.70102 8421 ft 299 kts 44°
2026-04-25 16:45 32.59975 -64.68215 8580 ft 300 kts 44°
2026-04-25 16:46 32.61323 -64.66332 8614 ft 299 kts 44°
2026-04-25 16:46 32.62670 -64.64449 8617 ft 299 kts 44°
2026-04-25 16:46 32.64015 -64.62565 8618 ft 299 kts 44°
2026-04-25 16:46 32.64905 -64.61317 8619 ft 299 kts 44°
2026-04-25 16:47 32.66703 -64.58790 8625 ft 299 kts 44°
2026-04-25 16:47 32.68056 -64.56918 8626 ft 299 kts 43°
2026-04-25 16:47 32.69422 -64.55058 8627 ft 299 kts 43°
2026-04-25 16:47 32.70791 -64.53201 8628 ft 299 kts 43°
2026-04-25 16:48 32.72158 -64.51344 8628 ft 298 kts 43°
2026-04-25 16:48 32.73522 -64.49487 8631 ft 299 kts 43°
2026-04-25 16:48 32.74886 -64.47627 8628 ft 299 kts 43°
2026-04-25 16:48 32.76248 -64.45766 8628 ft 299 kts 43°
2026-04-25 16:49 32.77611 -64.43900 8631 ft 299 kts 43°
2026-04-25 16:49 32.78972 -64.42033 8630 ft 299 kts 43°
2026-04-25 16:49 32.80332 -64.40170 8632 ft 299 kts 43°
2026-04-25 16:49 32.81693 -64.38305 8634 ft 299 kts 43°
2026-04-25 16:50 32.83055 -64.36440 8635 ft 299 kts 43°
2026-04-25 16:50 32.84416 -64.34573 8634 ft 299 kts 43°
2026-04-25 16:50 32.85783 -64.32699 8632 ft 300 kts 43°
2026-04-25 16:50 32.87148 -64.30826 8631 ft 300 kts 43°
2026-04-25 16:51 32.88514 -64.28950 8635 ft 300 kts 43°
2026-04-25 16:51 32.89878 -64.27075 8633 ft 300 kts 43°
2026-04-25 16:51 32.91241 -64.25193 8632 ft 300 kts 43°
2026-04-25 16:51 32.92141 -64.23945 8635 ft 300 kts 43°
2026-04-25 16:52 32.93965 -64.21428 8633 ft 300 kts 43°
2026-04-25 16:52 32.95314 -64.19572 8642 ft 300 kts 43°
2026-04-25 16:52 32.96680 -64.17695 8635 ft 300 kts 43°
2026-04-25 16:52 32.98050 -64.15815 8634 ft 301 kts 43°
2026-04-25 16:53 33.00787 -64.12045 8633 ft 301 kts 43°
2026-04-25 16:53 33.02154 -64.10155 8633 ft 301 kts 43°
2026-04-25 16:53 33.03522 -64.08263 8633 ft 301 kts 43°
2026-04-25 16:54 33.04888 -64.06374 8634 ft 301 kts 43°
2026-04-25 16:54 33.06255 -64.04481 8636 ft 301 kts 43°
2026-04-25 16:54 33.07624 -64.02585 8634 ft 302 kts 43°
2026-04-25 16:54 33.08995 -64.00683 8678 ft 302 kts 43°
2026-04-25 16:55 33.10374 -63.98769 9288 ft 305 kts 43°
2026-04-25 16:55 33.11764 -63.96839 9962 ft 309 kts 43°
2026-04-25 16:55 33.13190 -63.94864 10308 ft 324 kts 43°
2026-04-25 16:55 33.14713 -63.92765 10439 ft 345 kts 44°
2026-04-25 16:56 33.16333 -63.90536 10568 ft 365 kts 44°
2026-04-25 16:56 33.18017 -63.88207 10972 ft 374 kts 44°
2026-04-25 16:56 33.19724 -63.85833 11527 ft 379 kts 45°
2026-04-25 16:56 33.21444 -63.83431 12104 ft 382 kts 45°
2026-04-25 16:57 33.23181 -63.81003 12675 ft 386 kts 45°
2026-04-25 16:57 33.24341 -63.79382 13051 ft 388 kts 45°
2026-04-25 16:57 33.26703 -63.76082 13805 ft 393 kts 45°
2026-04-25 16:57 33.28487 -63.73587 14307 ft 397 kts 45°
2026-04-25 16:58 33.30290 -63.71068 14768 ft 401 kts 45°
2026-04-25 16:58 33.32110 -63.68527 15265 ft 404 kts 44°
2026-04-25 16:58 33.33947 -63.65960 15732 ft 408 kts 44°
2026-04-25 16:58 33.35798 -63.63372 16209 ft 411 kts 44°
2026-04-25 16:59 33.37662 -63.60768 16685 ft 414 kts 44°
2026-04-25 16:59 33.39544 -63.58138 17169 ft 417 kts 44°
2026-04-25 16:59 33.41437 -63.55487 17659 ft 420 kts 44°
2026-04-25 16:59 33.43341 -63.52816 18138 ft 424 kts 44°
2026-04-25 17:00 33.45260 -63.50121 18575 ft 426 kts 44°
2026-04-25 17:00 33.47186 -63.47411 19009 ft 429 kts 44°
2026-04-25 17:00 33.49126 -63.44683 19433 ft 431 kts 44°
2026-04-25 17:00 33.51076 -63.41936 19860 ft 435 kts 43°
2026-04-25 17:01 33.53040 -63.39164 20251 ft 438 kts 43°
2026-04-25 17:01 33.55015 -63.36376 20659 ft 440 kts 43°
2026-04-25 17:01 33.57001 -63.33574 21068 ft 442 kts 43°
2026-04-25 17:01 33.58994 -63.30762 21485 ft 444 kts 43°
2026-04-25 17:02 33.60996 -63.27932 21878 ft 446 kts 43°
2026-04-25 17:02 33.63001 -63.25094 22268 ft 447 kts 43°
2026-04-25 17:02 33.65017 -63.22240 22649 ft 449 kts 43°
2026-04-25 17:02 33.67045 -63.19372 23024 ft 451 kts 43°
2026-04-25 17:03 33.69077 -63.16495 23389 ft 453 kts 42°
2026-04-25 17:03 33.71121 -63.13602 23693 ft 455 kts 42°
2026-04-25 17:03 33.73180 -63.10687 23933 ft 459 kts 43°
2026-04-25 17:03 33.75246 -63.07753 24179 ft 462 kts 43°
2026-04-25 17:04 33.77322 -63.04796 24449 ft 464 kts 43°
2026-04-25 17:04 33.79406 -63.01823 24712 ft 466 kts 43°
2026-04-25 17:04 33.81496 -62.98838 24966 ft 468 kts 43°
2026-04-25 17:04 33.83596 -62.95837 25221 ft 470 kts 43°
2026-04-25 17:05 33.85704 -62.92828 25485 ft 472 kts 43°
2026-04-25 17:05 33.89956 -62.86756 25936 ft 477 kts 43°
2026-04-25 17:05 33.92096 -62.83698 26171 ft 478 kts 43°
2026-04-25 17:06 33.94245 -62.80625 26393 ft 481 kts 43°
2026-04-25 17:06 33.96407 -62.77533 26595 ft 484 kts 43°
2026-04-25 17:06 33.98575 -62.74426 26817 ft 486 kts 43°
2026-04-25 17:06 34.00751 -62.71305 27036 ft 487 kts 43°
2026-04-25 17:07 34.02936 -62.68169 27282 ft 489 kts 43°
2026-04-25 17:07 34.05125 -62.65023 27492 ft 491 kts 42°
2026-04-25 17:07 34.07321 -62.61862 27698 ft 492 kts 43°
2026-04-25 17:07 34.09520 -62.58687 27900 ft 494 kts 43°
2026-04-25 17:08 34.11695 -62.55541 28106 ft 495 kts 43°
2026-04-25 17:08 34.13937 -62.52303 28304 ft 497 kts 43°
2026-04-25 17:08 34.16157 -62.49101 28456 ft 499 kts 43°
2026-04-25 17:08 34.18387 -62.45883 28632 ft 500 kts 43°
2026-04-25 17:09 34.20622 -62.42650 28847 ft 502 kts 42°
2026-04-25 17:09 34.22860 -62.39409 29031 ft 502 kts 42°
2026-04-25 17:09 34.25095 -62.36170 29276 ft 502 kts 42°
2026-04-25 17:09 34.27326 -62.32930 29534 ft 501 kts 42°
2026-04-25 17:10 34.29548 -62.29698 29786 ft 500 kts 42°
2026-04-25 17:10 34.31742 -62.26507 30024 ft 499 kts 42°
2026-04-25 17:10 34.33962 -62.23283 30158 ft 500 kts 42°
2026-04-25 17:10 34.36219 -62.20006 29942 ft 499 kts 42°
2026-04-25 17:11 34.40660 -62.13525 29965 ft 500 kts 41°
2026-04-25 17:11 34.45263 -62.07250 29969 ft 496 kts 38°
2026-04-25 17:12 34.49998 -62.01266 29967 ft 495 kts 37°
2026-04-25 17:12 34.54762 -61.95226 30005 ft 496 kts 37°
2026-04-25 17:13 34.57918 -61.91133 29943 ft 496 kts 38°
2026-04-25 17:13 34.64146 -61.82916 29961 ft 497 kts 38°
2026-04-25 17:14 34.68826 -61.76748 29960 ft 496 kts 38°
2026-04-25 17:14 34.73522 -61.70597 29952 ft 496 kts 37°
2026-04-25 17:15 34.78209 -61.64434 29955 ft 496 kts 37°
2026-04-25 17:15 34.82882 -61.58257 29953 ft 496 kts 37°
2026-04-25 17:16 34.87556 -61.52070 29949 ft 496 kts 37°
2026-04-25 17:16 34.92233 -61.45878 29951 ft 496 kts 37°
2026-04-25 17:17 34.96902 -61.39681 29945 ft 496 kts 38°
2026-04-25 17:17 35.01577 -61.33483 29936 ft 496 kts 37°
2026-04-25 17:18 35.06267 -61.27262 29986 ft 500 kts 36°
2026-04-25 17:18 35.10965 -61.20996 29937 ft 501 kts 37°
2026-04-25 17:19 35.15663 -61.14712 29930 ft 501 kts 37°
2026-04-25 17:19 35.20360 -61.08416 29927 ft 501 kts 37°
2026-04-25 17:20 35.25028 -61.02154 29925 ft 503 kts 36°
2026-04-25 17:20 35.29782 -60.95765 29920 ft 505 kts 36°
2026-04-25 17:21 35.34517 -60.89397 29919 ft 506 kts 36°
2026-04-25 17:21 35.39253 -60.83017 29965 ft 506 kts 36°
2026-04-25 17:22 35.42385 -60.78784 29915 ft 506 kts 37°
2026-04-25 17:22 35.48719 -60.70206 29912 ft 509 kts 37°
2026-04-25 17:23 35.53453 -60.63798 29906 ft 510 kts 37°
2026-04-25 17:23 35.58214 -60.57328 29888 ft 510 kts 37°
2026-04-25 17:24 35.62193 -60.51895 29898 ft 510 kts 37°
2026-04-25 17:24 35.66941 -60.45417 29886 ft 511 kts 37°
2026-04-25 17:25 35.71729 -60.38904 29957 ft 514 kts 38°
2026-04-25 17:25 35.76513 -60.32365 29892 ft 514 kts 38°
2026-04-25 17:26 35.81285 -60.25815 29873 ft 514 kts 38°
2026-04-25 17:26 35.86049 -60.19252 29887 ft 514 kts 38°
2026-04-25 17:27 35.90830 -60.12674 29869 ft 517 kts 38°
2026-04-25 17:27 35.94825 -60.07172 29875 ft 518 kts 38°
2026-04-25 17:28 36.00356 -59.99292 29868 ft 527 kts 45°
2026-04-25 17:28 36.04430 -59.91674 29850 ft 532 kts 48°
2026-04-25 17:29 36.08484 -59.83986 29853 ft 536 kts 49°
2026-04-25 17:29 36.12551 -59.76255 29856 ft 537 kts 49°
2026-04-25 17:30 36.16624 -59.68509 29916 ft 537 kts 49°
2026-04-25 17:30 36.20701 -59.60748 29859 ft 538 kts 49°
2026-04-25 17:31 36.24786 -59.52948 29849 ft 541 kts 49°
2026-04-25 17:31 36.28881 -59.45116 29843 ft 542 kts 49°
2026-04-25 17:32 36.32973 -59.37258 29811 ft 542 kts 50°
2026-04-25 17:32 36.37058 -59.29387 29836 ft 544 kts 50°
2026-04-25 17:33 36.41182 -59.21473 29834 ft 547 kts 50°
2026-04-25 17:33 36.45302 -59.13521 29828 ft 548 kts 50°
2026-04-25 17:34 36.49402 -59.05544 29824 ft 548 kts 50°
2026-04-25 17:34 36.53510 -58.97561 29829 ft 550 kts 51°
2026-04-25 17:35 36.57639 -58.89549 29869 ft 550 kts 51°
2026-04-25 17:35 36.61736 -58.81555 29833 ft 547 kts 51°
2026-04-25 17:36 36.65844 -58.73533 29818 ft 550 kts 51°
2026-04-25 17:36 36.69952 -58.65480 29810 ft 551 kts 51°
2026-04-25 17:37 36.74044 -58.57443 29786 ft 546 kts 51°
2026-04-25 17:37 36.78104 -58.49439 29809 ft 546 kts 51°
2026-04-25 17:38 36.81484 -58.42767 29817 ft 550 kts 52°
2026-04-25 17:38 36.86278 -58.33310 29765 ft 549 kts 52°
2026-04-25 17:39 36.90328 -58.25272 29789 ft 546 kts 52°
2026-04-25 17:39 36.94367 -58.17233 29791 ft 548 kts 52°
2026-04-25 17:40 36.98445 -58.09120 29826 ft 551 kts 53°
2026-04-25 17:40 37.02484 -58.01047 29786 ft 546 kts 53°
2026-04-25 17:41 37.06510 -57.92987 29780 ft 546 kts 53°
2026-04-25 17:41 37.10554 -57.84868 29858 ft 553 kts 53°
2026-04-25 17:42 37.12581 -57.80788 29744 ft 549 kts 53°
2026-04-25 17:42 37.14565 -57.76786 29796 ft 547 kts 53°
2026-04-25 17:42 37.18568 -57.68694 29778 ft 546 kts 53°
2026-04-25 17:43 37.22611 -57.60517 29780 ft 551 kts 53°
2026-04-25 17:43 37.26641 -57.52352 29773 ft 548 kts 54°
2026-04-25 17:44 37.30651 -57.44207 29764 ft 548 kts 54°
2026-04-25 17:44 37.34624 -57.36118 29741 ft 549 kts 54°
2026-04-25 17:45 37.37318 -57.30632 29733 ft 549 kts 54°
2026-04-25 17:45 37.42616 -57.19782 29758 ft 546 kts 54°
2026-04-25 17:46 37.46594 -57.11640 29753 ft 546 kts 54°
2026-04-25 17:46 37.50574 -57.03450 29728 ft 549 kts 55°
2026-04-25 17:47 37.54576 -56.95196 29745 ft 548 kts 55°
2026-04-25 17:47 37.58519 -56.87043 29745 ft 548 kts 55°
2026-04-25 17:48 37.64462 -56.74711 29747 ft 548 kts 55°
2026-04-25 17:49 37.68413 -56.66485 29739 ft 548 kts 56°
2026-04-25 17:49 37.72366 -56.58250 29736 ft 548 kts 56°
2026-04-25 17:50 37.76331 -56.49962 29731 ft 553 kts 56°
2026-04-25 17:50 37.80307 -56.41623 29733 ft 554 kts 56°
2026-04-25 17:51 37.84278 -56.33274 29776 ft 553 kts 56°
2026-04-25 17:51 37.88229 -56.24954 29748 ft 553 kts 56°
2026-04-25 17:52 37.92186 -56.16597 29733 ft 554 kts 56°
2026-04-25 17:52 37.96137 -56.08221 29773 ft 553 kts 56°
2026-04-25 17:53 38.00018 -55.99878 29729 ft 549 kts 60°
2026-04-25 17:53 38.03285 -55.91118 29723 ft 549 kts 63°
2026-04-25 17:54 38.06494 -55.82338 29722 ft 549 kts 63°
2026-04-25 17:54 38.09698 -55.73576 29734 ft 548 kts 64°
2026-04-25 17:55 38.12913 -55.64794 29715 ft 549 kts 64°
2026-04-25 17:55 38.16124 -55.55991 29712 ft 549 kts 64°
2026-04-25 17:56 38.19323 -55.47190 29723 ft 549 kts 64°
2026-04-25 17:56 38.22512 -55.38361 29715 ft 550 kts 64°
2026-04-25 17:57 38.25695 -55.29524 29709 ft 549 kts 64°
2026-04-25 17:57 38.28877 -55.20688 29692 ft 548 kts 64°
2026-04-25 17:58 38.32041 -55.11866 29705 ft 547 kts 64°
2026-04-25 17:58 38.35201 -55.03044 29702 ft 547 kts 64°
2026-04-25 17:59 38.38359 -54.94209 29690 ft 547 kts 65°
2026-04-25 17:59 38.41494 -54.85383 29698 ft 546 kts 65°
2026-04-25 18:00 38.44109 -54.77987 29693 ft 546 kts 65°
2026-04-25 18:00 38.47745 -54.67690 29700 ft 548 kts 65°
2026-04-25 18:01 38.50866 -54.58860 29699 ft 545 kts 65°
2026-04-25 18:01 38.53974 -54.50037 29696 ft 545 kts 65°
2026-04-25 18:02 38.57083 -54.41153 29709 ft 548 kts 65°
2026-04-25 18:02 38.60168 -54.32287 29698 ft 545 kts 65°
2026-04-25 18:03 38.63252 -54.23433 29663 ft 546 kts 65°
2026-04-25 18:03 38.66361 -54.14515 29716 ft 549 kts 65°
2026-04-25 18:04 38.69447 -54.05619 29696 ft 546 kts 66°
2026-04-25 18:04 38.72512 -53.96718 29692 ft 548 kts 66°
2026-04-25 18:05 38.75061 -53.89267 29696 ft 550 kts 66°
2026-04-25 18:05 38.78138 -53.80280 29701 ft 551 kts 66°
2026-04-25 18:06 38.81219 -53.71277 29681 ft 554 kts 66°
2026-04-25 18:06 38.84327 -53.62176 29724 ft 558 kts 66°
2026-04-25 18:07 38.87415 -53.53104 29687 ft 553 kts 66°
2026-04-25 18:07 38.90484 -53.44050 29688 ft 553 kts 66°
2026-04-25 18:08 38.93536 -53.34993 29709 ft 552 kts 66°
2026-04-25 18:08 38.96575 -53.25961 29688 ft 550 kts 66°
2026-04-25 18:09 38.99604 -53.16931 29691 ft 550 kts 66°
2026-04-25 18:09 39.02627 -53.07905 29697 ft 550 kts 66°
2026-04-25 18:10 39.05639 -52.98882 29689 ft 548 kts 66°
2026-04-25 18:10 39.08639 -52.89857 29683 ft 548 kts 66°
2026-04-25 18:11 39.11631 -52.80823 29691 ft 548 kts 67°
2026-04-25 18:11 39.14595 -52.71859 29688 ft 547 kts 67°
2026-04-25 18:12 39.17572 -52.62830 29690 ft 547 kts 67°
2026-04-25 18:12 39.20533 -52.53797 29703 ft 547 kts 67°
2026-04-25 18:13 39.23476 -52.44770 29688 ft 545 kts 67°
2026-04-25 18:13 39.26427 -52.35741 29703 ft 550 kts 67°
2026-04-25 18:14 39.30898 -52.21990 29674 ft 554 kts 68°
2026-04-25 18:14 39.33860 -52.12816 29679 ft 554 kts 68°
2026-04-25 18:15 39.36816 -52.03631 29682 ft 553 kts 68°
2026-04-25 18:15 39.39769 -51.94442 29678 ft 554 kts 68°
2026-04-25 18:16 39.42722 -51.85246 29681 ft 553 kts 68°
2026-04-25 18:17 39.47122 -51.71440 29692 ft 553 kts 68°
2026-04-25 18:17 39.50046 -51.62225 29678 ft 553 kts 69°
2026-04-25 18:18 39.52976 -51.52974 29684 ft 558 kts 69°
2026-04-25 18:18 39.55924 -51.43662 29676 ft 559 kts 69°
2026-04-25 18:19 39.58865 -51.34322 29680 ft 560 kts 69°
2026-04-25 18:19 39.61801 -51.24961 29682 ft 559 kts 69°
2026-04-25 18:20 39.64699 -51.15678 29680 ft 558 kts 69°
2026-04-25 18:20 39.67608 -51.06323 29675 ft 560 kts 69°
2026-04-25 18:21 39.70513 -50.96942 29680 ft 560 kts 69°
2026-04-25 18:21 39.73412 -50.87556 29689 ft 560 kts 70°
2026-04-25 18:22 39.76308 -50.78157 29679 ft 561 kts 70°
2026-04-25 18:22 39.79208 -50.68721 29668 ft 564 kts 70°
2026-04-25 18:23 39.82113 -50.59249 29673 ft 564 kts 70°
2026-04-25 18:23 39.84999 -50.49755 29673 ft 565 kts 70°
2026-04-25 18:24 39.87883 -50.40241 29669 ft 565 kts 70°
2026-04-25 18:24 39.90771 -50.30731 29677 ft 565 kts 70°
2026-04-25 18:25 39.93652 -50.21203 29674 ft 565 kts 71°
2026-04-25 18:25 39.96520 -50.11662 29672 ft 565 kts 71°
2026-04-25 18:26 39.99372 -50.02108 29670 ft 565 kts 71°
2026-04-25 18:26 40.01947 -49.92426 29622 ft 565 kts 76°
2026-04-25 18:27 40.04073 -49.82564 29669 ft 564 kts 79°
2026-04-25 18:27 40.06094 -49.72662 29673 ft 565 kts 78°
2026-04-25 18:28 40.08217 -49.62844 29672 ft 566 kts 77°
2026-04-25 18:28 40.10455 -49.52912 29674 ft 566 kts 77°
2026-04-25 18:29 40.13744 -49.38097 29675 ft 566 kts 77°
2026-04-25 18:30 40.18038 -49.18278 29684 ft 566 kts 78°
2026-04-25 18:30 40.20174 -49.08378 29677 ft 565 kts 78°
2026-04-25 18:31 40.22297 -48.98490 29683 ft 564 kts 78°
2026-04-25 18:31 40.24416 -48.88597 29679 ft 564 kts 78°
2026-04-25 18:32 40.26526 -48.78709 29676 ft 564 kts 78°
2026-04-25 18:32 40.28625 -48.68811 29689 ft 564 kts 78°
2026-04-25 18:33 40.30714 -48.58904 29684 ft 564 kts 78°
2026-04-25 18:33 40.32801 -48.49021 29684 ft 561 kts 78°
2026-04-25 18:34 40.34867 -48.39174 29684 ft 560 kts 78°
2026-04-25 18:34 40.36896 -48.29406 29689 ft 559 kts 78°
2026-04-25 18:35 40.38929 -48.19574 29686 ft 559 kts 78°
2026-04-25 18:35 40.40960 -48.09738 29687 ft 558 kts 78°
2026-04-25 18:36 40.42976 -47.99900 29687 ft 559 kts 79°
2026-04-25 18:36 40.44987 -47.90051 29687 ft 559 kts 79°
2026-04-25 18:37 40.46988 -47.80220 29701 ft 556 kts 79°
2026-04-25 18:37 40.48964 -47.70429 29690 ft 554 kts 79°
2026-04-25 18:38 40.50930 -47.60654 29688 ft 553 kts 79°
2026-04-25 18:38 40.52889 -47.50882 29689 ft 553 kts 79°
2026-04-25 18:39 40.54842 -47.41111 29693 ft 553 kts 79°
2026-04-25 18:39 40.56790 -47.31339 29686 ft 552 kts 79°
2026-04-25 18:40 40.58714 -47.21579 29692 ft 551 kts 79°
2026-04-25 18:40 40.60633 -47.11809 29703 ft 551 kts 80°
2026-04-25 18:41 40.62551 -47.02034 29690 ft 552 kts 80°
2026-04-25 18:41 40.64461 -46.92249 29693 ft 552 kts 81°
2026-04-25 18:42 40.65727 -46.85700 29696 ft 552 kts 81°
2026-04-25 18:42 40.68239 -46.72663 29691 ft 552 kts 81°
2026-04-25 18:43 40.70125 -46.62859 29696 ft 552 kts 81°
2026-04-25 18:43 40.71996 -46.53045 29693 ft 552 kts 81°
2026-04-25 18:44 40.73854 -46.43226 29650 ft 552 kts 81°
2026-04-25 18:44 40.75710 -46.33367 29689 ft 555 kts 82°
2026-04-25 18:45 40.77571 -46.23485 29694 ft 555 kts 82°
2026-04-25 18:45 40.79424 -46.13596 29695 ft 555 kts 82°
2026-04-25 18:46 40.81267 -46.03702 29695 ft 555 kts 82°
2026-04-25 18:46 40.83102 -45.93804 29693 ft 555 kts 82°
2026-04-25 18:47 40.84929 -45.83908 29696 ft 554 kts 82°
2026-04-25 18:47 40.86745 -45.74011 29695 ft 554 kts 82°
2026-04-25 18:48 40.88550 -45.64104 29697 ft 554 kts 82°
2026-04-25 18:48 40.90036 -45.55871 29700 ft 554 kts 83°
2026-04-25 18:49 40.91822 -45.45960 29700 ft 554 kts 83°
2026-04-25 18:49 40.93605 -45.36050 29696 ft 554 kts 83°
2026-04-25 18:50 40.95379 -45.26127 29703 ft 554 kts 83°
2026-04-25 18:50 40.97137 -45.16208 29703 ft 554 kts 83°
2026-04-25 18:51 40.98596 -45.07969 29696 ft 554 kts 83°
2026-04-25 18:51 40.99715 -44.96352 29709 ft 535 kts 100°
2026-04-25 18:52 40.99254 -44.86640 29698 ft 527 kts 104°
2026-04-25 18:52 40.98695 -44.76963 29703 ft 527 kts 105°
2026-04-25 18:53 40.98129 -44.67291 29703 ft 527 kts 105°
2026-04-25 18:53 40.97554 -44.57623 29649 ft 527 kts 105°
2026-04-25 18:54 40.96696 -44.43163 29710 ft 525 kts 105°
2026-04-25 18:55 40.96106 -44.33542 29708 ft 524 kts 105°
2026-04-25 18:55 40.95508 -44.23924 29712 ft 524 kts 105°
2026-04-25 18:56 40.94914 -44.14312 29655 ft 524 kts 105°
2026-04-25 18:56 40.94311 -44.04790 29710 ft 523 kts 105°
2026-04-25 18:57 40.93690 -43.95216 29715 ft 522 kts 105°
2026-04-25 18:57 40.93065 -43.85650 29715 ft 523 kts 105°
2026-04-25 18:58 40.92433 -43.76074 29714 ft 522 kts 105°
2026-04-25 18:58 40.91457 -43.61739 29718 ft 521 kts 105°
2026-04-25 18:59 40.90149 -43.42657 29717 ft 521 kts 105°
2026-04-25 19:00 40.89148 -43.28351 29725 ft 520 kts 104°
2026-04-25 19:01 40.88142 -43.14123 29715 ft 518 kts 104°
2026-04-25 19:01 40.87451 -43.04665 29718 ft 517 kts 104°
2026-04-25 19:02 40.86400 -42.90474 29659 ft 517 kts 104°
2026-04-25 19:03 40.85475 -42.77952 29717 ft 513 kts 103°
2026-04-25 19:03 40.84646 -42.67005 29715 ft 512 kts 104°
2026-04-25 19:04 40.83567 -42.52968 29714 ft 512 kts 104°
2026-04-25 19:05 40.82120 -42.34363 29707 ft 507 kts 104°
2026-04-25 19:06 40.81384 -42.25125 29706 ft 506 kts 104°
2026-04-25 19:06 40.80261 -42.11276 29703 ft 506 kts 104°
2026-04-25 19:07 40.79127 -41.97418 29692 ft 507 kts 103°
2026-04-25 19:08 40.77987 -41.83543 29684 ft 507 kts 103°
2026-04-25 19:09 40.76562 -41.66614 29698 ft 507 kts 104°
2026-04-25 19:10 40.75235 -41.51245 29702 ft 508 kts 103°
2026-04-25 19:10 40.74429 -41.42002 29701 ft 508 kts 103°
2026-04-25 19:11 40.73624 -41.32750 29701 ft 508 kts 103°
2026-04-25 19:11 40.72818 -41.23524 29704 ft 506 kts 103°
2026-04-25 19:12 40.72001 -41.14322 29710 ft 505 kts 104°
2026-04-25 19:12 40.71173 -41.05127 29712 ft 505 kts 104°
2026-04-25 19:13 40.70331 -40.95926 29716 ft 505 kts 104°
2026-04-25 19:13 40.69481 -40.86738 29718 ft 505 kts 104°
2026-04-25 19:14 40.68636 -40.77538 29728 ft 506 kts 103°
2026-04-25 19:14 40.67782 -40.68345 29722 ft 505 kts 103°
2026-04-25 19:15 40.66911 -40.59160 29747 ft 505 kts 103°
2026-04-25 19:15 40.66036 -40.49979 29746 ft 505 kts 103°
2026-04-25 19:16 40.65165 -40.40797 29712 ft 505 kts 103°
2026-04-25 19:16 40.64282 -40.31618 29758 ft 505 kts 103°
2026-04-25 19:17 40.63382 -40.22427 29760 ft 507 kts 103°
2026-04-25 19:17 40.62476 -40.13204 29770 ft 508 kts 103°
2026-04-25 19:18 40.61560 -40.03978 29769 ft 508 kts 103°
2026-04-25 19:18 40.60634 -39.94752 29786 ft 510 kts 103°
2026-04-25 19:19 40.59705 -39.85496 29778 ft 511 kts 103°
2026-04-25 19:19 40.58769 -39.76236 29787 ft 511 kts 103°
2026-04-25 19:20 40.57978 -39.68528 29794 ft 511 kts 103°
2026-04-25 19:20 40.56864 -39.57695 29774 ft 511 kts 103°
2026-04-25 19:21 40.55905 -39.48445 29805 ft 510 kts 103°
2026-04-25 19:21 40.54441 -39.34598 29821 ft 510 kts 103°
2026-04-25 19:22 40.53459 -39.25372 29819 ft 509 kts 103°
2026-04-25 19:23 40.51983 -39.11563 29832 ft 507 kts 103°
2026-04-25 19:23 40.50503 -38.97830 29836 ft 506 kts 103°
2026-04-25 19:24 40.49502 -38.88688 29836 ft 505 kts 103°
2026-04-25 19:25 40.47484 -38.70427 29848 ft 504 kts 103°
2026-04-25 19:25 40.46469 -38.61316 29852 ft 504 kts 103°
2026-04-25 19:26 40.45450 -38.52277 29866 ft 504 kts 103°
2026-04-25 19:26 40.44412 -38.43119 29865 ft 504 kts 103°
2026-04-25 19:27 40.43721 -38.37103 29856 ft 503 kts 103°
2026-04-25 19:27 40.42332 -38.25033 29877 ft 502 kts 103°
2026-04-25 19:28 40.41285 -38.15971 29879 ft 502 kts 103°
2026-04-25 19:28 40.40228 -38.06923 29885 ft 502 kts 103°
2026-04-25 19:29 40.39162 -37.97869 29897 ft 502 kts 103°
2026-04-25 19:29 40.38093 -37.88818 29894 ft 502 kts 103°
2026-04-25 19:30 40.37014 -37.79786 29904 ft 501 kts 103°
2026-04-25 19:30 40.35931 -37.70757 29913 ft 501 kts 102°
2026-04-25 19:31 40.34844 -37.61723 29916 ft 502 kts 103°
2026-04-25 19:31 40.33745 -37.52701 29913 ft 501 kts 102°
2026-04-25 19:32 40.32640 -37.43695 29922 ft 500 kts 102°
2026-04-25 19:32 40.31898 -37.37683 29931 ft 500 kts 103°
2026-04-25 19:33 40.30599 -37.27238 29928 ft 500 kts 103°
2026-04-25 19:33 40.29472 -37.18189 29977 ft 501 kts 102°
2026-04-25 19:34 40.28910 -37.13692 30247 ft 500 kts 102°
2026-04-25 19:34 40.28349 -37.09205 30515 ft 499 kts 103°
2026-04-25 19:34 40.27790 -37.04786 30770 ft 499 kts 103°
2026-04-25 19:34 40.27220 -37.00303 31018 ft 499 kts 103°
2026-04-25 19:35 40.26654 -36.95826 31190 ft 500 kts 103°
2026-04-25 19:35 40.26087 -36.91329 31441 ft 499 kts 102°
2026-04-25 19:35 40.25517 -36.86854 31716 ft 498 kts 103°
2026-04-25 19:35 40.24947 -36.82385 31976 ft 498 kts 102°
2026-04-25 19:36 40.24375 -36.77922 32226 ft 497 kts 103°
2026-04-25 19:36 40.23800 -36.73458 32456 ft 497 kts 103°
2026-04-25 19:36 40.23223 -36.69006 32730 ft 496 kts 102°
2026-04-25 19:36 40.22643 -36.64568 33003 ft 495 kts 103°
2026-04-25 19:37 40.22062 -36.60139 33258 ft 494 kts 103°
2026-04-25 19:37 40.21481 -36.55712 33518 ft 493 kts 103°
2026-04-25 19:37 40.20900 -36.51292 33771 ft 493 kts 102°
2026-04-25 19:37 40.20320 -36.46870 34002 ft 493 kts 102°
2026-04-25 19:38 40.19739 -36.42457 34229 ft 492 kts 103°
2026-04-25 19:38 40.19153 -36.38048 34439 ft 492 kts 103°
2026-04-25 19:38 40.18568 -36.33637 34616 ft 492 kts 103°
2026-04-25 19:38 40.17983 -36.29232 34831 ft 491 kts 103°
2026-04-25 19:39 40.17396 -36.24834 34965 ft 492 kts 103°
2026-04-25 19:39 40.16807 -36.20434 34995 ft 491 kts 103°
2026-04-25 19:39 40.15627 -36.11669 35003 ft 489 kts 103°
2026-04-25 19:40 40.14445 -36.02920 35003 ft 489 kts 103°
2026-04-25 19:40 40.13254 -35.94177 34998 ft 489 kts 103°
2026-04-25 19:41 40.12055 -35.85431 35009 ft 489 kts 103°
2026-04-25 19:41 40.11061 -35.78169 35018 ft 489 kts 103°
2026-04-25 19:42 40.09650 -35.67956 35023 ft 488 kts 103°
2026-04-25 19:42 40.08442 -35.59230 35032 ft 488 kts 103°
2026-04-25 19:43 40.07216 -35.50519 35023 ft 488 kts 103°
2026-04-25 19:43 40.05985 -35.41814 35031 ft 488 kts 103°
2026-04-25 19:44 40.04752 -35.33113 35027 ft 487 kts 103°
2026-04-25 19:44 40.03509 -35.24418 35036 ft 487 kts 103°
2026-04-25 19:45 40.02266 -35.15731 35027 ft 487 kts 103°
2026-04-25 19:45 40.01021 -35.07058 35040 ft 486 kts 103°
2026-04-25 19:46 39.99876 -34.98367 35053 ft 488 kts 97°
2026-04-25 19:46 39.99282 -34.89557 35057 ft 488 kts 97°
2026-04-25 19:47 39.98669 -34.80745 35064 ft 488 kts 97°
2026-04-25 19:47 39.98033 -34.71941 35056 ft 488 kts 97°
2026-04-25 19:48 39.97401 -34.63135 35063 ft 488 kts 97°
2026-04-25 19:48 39.96763 -34.54334 35064 ft 488 kts 97°
2026-04-25 19:49 39.96229 -34.47015 35070 ft 488 kts 97°
2026-04-25 19:49 39.95463 -34.36727 35070 ft 488 kts 97°
2026-04-25 19:50 39.94479 -34.23518 35065 ft 488 kts 97°
2026-04-25 19:51 39.93816 -34.14707 35074 ft 489 kts 97°
2026-04-25 19:51 39.93141 -34.05891 35080 ft 489 kts 97°
2026-04-25 19:52 39.92454 -33.97071 35083 ft 489 kts 97°
2026-04-25 19:52 39.91760 -33.88249 35092 ft 490 kts 97°
2026-04-25 19:53 39.91060 -33.79429 35089 ft 490 kts 97°
2026-04-25 19:53 39.90132 -33.70656 35098 ft 488 kts 104°
2026-04-25 19:54 39.88672 -33.62028 35100 ft 488 kts 104°
2026-04-25 19:54 39.87214 -33.53398 35104 ft 488 kts 104°
2026-04-25 19:55 39.85760 -33.44767 35108 ft 488 kts 104°
2026-04-25 19:55 39.84290 -33.36146 35100 ft 488 kts 104°
2026-04-25 19:56 39.82810 -33.27533 35101 ft 488 kts 104°
2026-04-25 19:56 39.81342 -33.18973 35107 ft 488 kts 104°
2026-04-25 19:57 39.79856 -33.10370 35111 ft 487 kts 104°
2026-04-25 19:57 39.78368 -33.01777 35114 ft 487 kts 104°
2026-04-25 19:58 39.76869 -32.93198 35114 ft 486 kts 104°
2026-04-25 19:58 39.75363 -32.84638 35111 ft 485 kts 104°
2026-04-25 19:59 39.73860 -32.76091 35116 ft 485 kts 104°
2026-04-25 19:59 39.72356 -32.67559 35115 ft 484 kts 104°
2026-04-25 20:00 39.70838 -32.59035 35109 ft 484 kts 104°
2026-04-25 20:00 39.69461 -32.51320 35118 ft 484 kts 104°
2026-04-25 20:01 39.67172 -32.38547 35125 ft 484 kts 104°
2026-04-25 20:01 39.65642 -32.30045 35125 ft 484 kts 104°
2026-04-25 20:02 39.64102 -32.21547 35118 ft 484 kts 104°
2026-04-25 20:02 39.62549 -32.13047 35123 ft 484 kts 104°
2026-04-25 20:03 39.60991 -32.04553 35128 ft 484 kts 104°
2026-04-25 20:03 39.59428 -31.96058 35130 ft 484 kts 104°
2026-04-25 20:04 39.57867 -31.87564 35125 ft 484 kts 104°
2026-04-25 20:04 39.56306 -31.79147 35128 ft 485 kts 104°
2026-04-25 20:05 39.54718 -31.70578 35126 ft 485 kts 104°
2026-04-25 20:05 39.53137 -31.62138 35125 ft 485 kts 104°
2026-04-25 20:06 39.51525 -31.53603 35123 ft 492 kts 104°
2026-04-25 20:06 39.49895 -31.44951 35114 ft 497 kts 104°
2026-04-25 20:07 39.48247 -31.36214 35117 ft 502 kts 104°
2026-04-25 20:07 39.46573 -31.27399 35110 ft 506 kts 104°
2026-04-25 20:08 39.44842 -31.18555 35110 ft 508 kts 106°
2026-04-25 20:08 39.42797 -31.09797 35111 ft 508 kts 108°
2026-04-25 20:09 39.40583 -31.01122 35111 ft 508 kts 109°
2026-04-25 20:09 39.38403 -30.92428 35133 ft 508 kts 108°
2026-04-25 20:10 39.36387 -30.83693 35136 ft 502 kts 105°
2026-04-25 20:10 39.35554 -30.79364 35206 ft 491 kts 102°
2026-04-25 20:10 39.34828 -30.75083 35187 ft 489 kts 103°
2026-04-25 20:11 39.33245 -30.66441 35139 ft 497 kts 103°
2026-04-25 20:11 39.31606 -30.57719 35133 ft 502 kts 103°
2026-04-25 20:12 39.29947 -30.48927 35138 ft 505 kts 103°
2026-04-25 20:12 39.28682 -30.43075 35138 ft 507 kts 107°
2026-04-25 20:13 39.25686 -30.31604 35133 ft 507 kts 109°
2026-04-25 20:13 39.23385 -30.23021 35133 ft 506 kts 108°
2026-04-25 20:14 39.21128 -30.14417 35134 ft 506 kts 108°
2026-04-25 20:14 39.18882 -30.05810 35145 ft 506 kts 108°
2026-04-25 20:15 39.16544 -29.97274 35134 ft 505 kts 110°
2026-04-25 20:15 39.13973 -29.88846 35139 ft 505 kts 110°
2026-04-25 20:16 39.11441 -29.80398 35142 ft 505 kts 110°
2026-04-25 20:16 39.08885 -29.71981 35138 ft 505 kts 110°
2026-04-25 20:17 39.06769 -29.64981 35138 ft 505 kts 110°
2026-04-25 20:17 39.04286 -29.56532 35136 ft 505 kts 109°
2026-04-25 20:18 39.01814 -29.48013 35146 ft 505 kts 109°
2026-04-25 20:18 38.99325 -29.39644 35149 ft 505 kts 110°
2026-04-25 20:19 38.96666 -29.31224 35152 ft 505 kts 111°
2026-04-25 20:19 38.94012 -29.22945 35160 ft 505 kts 111°
2026-04-25 20:20 38.91340 -29.14551 35157 ft 504 kts 111°
2026-04-25 20:20 38.88729 -29.06288 35138 ft 503 kts 111°
2026-04-25 20:21 38.86079 -28.97913 35140 ft 503 kts 111°
2026-04-25 20:21 38.83433 -28.89615 35130 ft 502 kts 111°
2026-04-25 20:22 38.81225 -28.82730 35141 ft 502 kts 111°
2026-04-25 20:22 38.78124 -28.73055 35139 ft 502 kts 111°
2026-04-25 20:23 38.75461 -28.64772 35150 ft 502 kts 110°
2026-04-25 20:23 38.72799 -28.56506 35145 ft 502 kts 110°
2026-04-25 20:24 38.70127 -28.48248 35139 ft 502 kts 111°
2026-04-25 20:24 38.67447 -28.40002 35139 ft 502 kts 111°
2026-04-25 20:25 38.64765 -28.31757 35140 ft 502 kts 111°
2026-04-25 20:25 38.62087 -28.23516 35139 ft 502 kts 111°
2026-04-25 20:26 38.59485 -28.15241 35139 ft 501 kts 109°
2026-04-25 20:26 38.57026 -28.06908 35151 ft 501 kts 108°
2026-04-25 20:27 38.54547 -27.98586 35150 ft 501 kts 109°
2026-04-25 20:27 38.52024 -27.90284 35154 ft 501 kts 109°
2026-04-25 20:28 38.49492 -27.81997 35145 ft 501 kts 109°
2026-04-25 20:28 38.46972 -27.73706 35153 ft 501 kts 109°
2026-04-25 20:29 38.44451 -27.65413 35154 ft 501 kts 109°
2026-04-25 20:29 38.41921 -27.57132 35149 ft 501 kts 109°
2026-04-25 20:30 38.39383 -27.48856 35146 ft 501 kts 109°
2026-04-25 20:30 38.36856 -27.40637 35155 ft 501 kts 109°
2026-04-25 20:31 38.34291 -27.32311 35152 ft 501 kts 109°
2026-04-25 20:31 38.31737 -27.24043 35148 ft 501 kts 109°
2026-04-25 20:32 38.29180 -27.15791 35157 ft 501 kts 109°
2026-04-25 20:32 38.26618 -27.07552 35151 ft 501 kts 109°
2026-04-25 20:33 38.24046 -26.99313 35147 ft 501 kts 109°
2026-04-25 20:33 38.21909 -26.92473 35146 ft 501 kts 109°
2026-04-25 20:34 38.18910 -26.82917 34329 ft 492 kts 109°
2026-04-25 20:34 38.17638 -26.78881 32965 ft 492 kts 109°
2026-04-25 20:34 38.16362 -26.74839 31572 ft 493 kts 109°
2026-04-25 20:35 38.15103 -26.70851 30180 ft 493 kts 109°
2026-04-25 20:35 38.13805 -26.66734 28715 ft 497 kts 108°
2026-04-25 20:35 38.12543 -26.62726 27586 ft 495 kts 108°
2026-04-25 20:35 38.11243 -26.58613 26289 ft 496 kts 108°
2026-04-25 20:36 38.09971 -26.54604 25039 ft 497 kts 108°
2026-04-25 20:36 38.08676 -26.50534 23805 ft 497 kts 108°
2026-04-25 20:36 38.07380 -26.46477 22781 ft 492 kts 108°
2026-04-25 20:36 38.06087 -26.42448 21818 ft 482 kts 109°
2026-04-25 20:37 38.04843 -26.38571 20934 ft 467 kts 109°
2026-04-25 20:37 38.03638 -26.34812 20119 ft 455 kts 109°
2026-04-25 20:37 38.02453 -26.31106 19298 ft 453 kts 109°
2026-04-25 20:37 38.01289 -26.27459 18525 ft 451 kts 110°
2026-04-25 20:38 38.00117 -26.23786 17675 ft 448 kts 110°
2026-04-25 20:38 37.98950 -26.20145 16919 ft 443 kts 110°
2026-04-25 20:38 37.97795 -26.16546 16196 ft 439 kts 110°
2026-04-25 20:38 37.96649 -26.12981 15481 ft 435 kts 111°
2026-04-25 20:39 37.95512 -26.09450 14795 ft 430 kts 111°
2026-04-25 20:39 37.94386 -26.05958 14126 ft 426 kts 111°
2026-04-25 20:39 37.93267 -26.02495 13426 ft 422 kts 111°
2026-04-25 20:39 37.92520 -26.00179 12994 ft 419 kts 111°
2026-04-25 20:40 37.91083 -25.95711 12247 ft 410 kts 111°
2026-04-25 20:40 37.90017 -25.92391 11591 ft 405 kts 111°
2026-04-25 20:40 37.88962 -25.89102 10999 ft 400 kts 111°
2026-04-25 20:40 37.87941 -25.85915 10868 ft 381 kts 111°
2026-04-25 20:41 37.86966 -25.82877 10749 ft 364 kts 111°
2026-04-25 20:41 37.86032 -25.79972 10628 ft 349 kts 111°
2026-04-25 20:41 37.85125 -25.77195 10508 ft 335 kts 112°
2026-04-25 20:41 37.84111 -25.74606 10386 ft 323 kts 124°
2026-04-25 20:42 37.82668 -25.72498 10267 ft 312 kts 133°
2026-04-25 20:42 37.81175 -25.70578 10134 ft 301 kts 134°
2026-04-25 20:42 37.79709 -25.68715 9834 ft 297 kts 134°
2026-04-25 20:42 37.78256 -25.66868 9475 ft 295 kts 134°
2026-04-25 20:43 37.76818 -25.65033 9101 ft 293 kts 134°
2026-04-25 20:43 37.75404 -25.63210 8864 ft 286 kts 134°
2026-04-25 20:43 37.74033 -25.61432 8606 ft 280 kts 134°
2026-04-25 20:43 37.72685 -25.59676 8265 ft 277 kts 134°
2026-04-25 20:44 37.71351 -25.57927 7893 ft 275 kts 134°
2026-04-25 20:44 37.70036 -25.56191 7396 ft 273 kts 134°
2026-04-25 20:44 37.68738 -25.54462 6899 ft 271 kts 134°
2026-04-25 20:44 37.67452 -25.52735 6396 ft 269 kts 134°
2026-04-25 20:45 37.66185 -25.51020 5875 ft 266 kts 134°
2026-04-25 20:45 37.64953 -25.49350 5669 ft 251 kts 134°
2026-04-25 20:45 37.63794 -25.47773 5498 ft 241 kts 134°
2026-04-25 20:45 37.62666 -25.46237 5203 ft 237 kts 134°
2026-04-25 20:46 37.61548 -25.44712 4887 ft 236 kts 134°
2026-04-25 20:46 37.60503 -25.43139 4595 ft 233 kts 118°
2026-04-25 20:46 37.60150 -25.41184 4529 ft 232 kts 84°
2026-04-25 20:46 37.60700 -25.39288 4533 ft 234 kts 51°
2026-04-25 20:47 37.61991 -25.38120 4532 ft 231 kts 12°
2026-04-25 20:47 37.63551 -25.38277 4538 ft 228 kts 330°
2026-04-25 20:47 37.64614 -25.39622 4532 ft 211 kts 295°
2026-04-25 20:47 37.65184 -25.41276 4532 ft 203 kts 290°
2026-04-25 20:48 37.65700 -25.42928 4419 ft 202 kts 290°
2026-04-25 20:48 37.66218 -25.44571 4194 ft 201 kts 290°
2026-04-25 20:48 37.66738 -25.46208 3936 ft 201 kts 290°
2026-04-25 20:48 37.67259 -25.47846 3668 ft 201 kts 290°
2026-04-25 20:49 37.67777 -25.49478 3412 ft 200 kts 290°
2026-04-25 20:49 37.68296 -25.51111 3143 ft 200 kts 290°
2026-04-25 20:49 37.68812 -25.52739 2874 ft 200 kts 291°
2026-04-25 20:49 37.69329 -25.54367 2608 ft 200 kts 290°
2026-04-25 20:50 37.69840 -25.55979 2381 ft 196 kts 291°
2026-04-25 20:50 37.70340 -25.57557 2090 ft 190 kts 291°
2026-04-25 20:50 37.70815 -25.59059 1828 ft 179 kts 291°
2026-04-25 20:50 37.71263 -25.60473 1572 ft 168 kts 291°
2026-04-25 20:51 37.71679 -25.61789 1381 ft 154 kts 291°
2026-04-25 20:51 37.72070 -25.63024 1162 ft 149 kts 290°
2026-04-25 20:51 37.72449 -25.64224 966 ft 146 kts 291°
2026-04-25 20:51 37.72824 -25.65406 781 ft 144 kts 292°
2026-04-25 20:52 37.73185 -25.66559 597 ft 142 kts 293°
2026-04-25 20:52 37.73432 -25.67339 474 ft 141 kts 292°
2026-04-25 20:52 37.73910 -25.68853 243 ft 140 kts 293°
2026-04-25 20:52 37.74248 -25.69927 223 ft 115 kts 292°
2026-04-25 20:53 37.74433 -25.70516 247 ft 35 kts 291°
2026-04-25 20:53 37.74517 -25.70784 256 ft 31 kts 291°
2026-04-25 20:53 37.74572 -25.70950 259 ft 13 kts 299°
2026-04-25 20:53 37.74627 -25.71015 262 ft 9 kts 338°
2026-04-25 20:54 37.74696 -25.71019 264 ft 12 kts
2026-04-25 20:54 37.74773 -25.71041 265 ft 12 kts 314°
2026-04-25 20:54 37.74804 -25.71074 266 ft 4 kts 355°
2026-04-25 20:54 37.74828 -25.71068 266 ft 3 kts 16°
2026-04-25 20:55 37.74842 -25.71061 266 ft 2 kts 20°
2026-04-25 20:55 37.74857 -25.71055 265 ft 0 kts 20°